This demonstration page uses our WeatherBlox Daily Observations layout. Learn more.

Left ArrowRight Arrow

Hourly Observations for May 25, 2016

Temp ( °F °C ) Dew Point ( °F °C ) Humidity (%) Winds ( mph kmh ) Pressure ( in mb ) Visibility ( mi km ) Precip ( " mm )
12:45 am 00:45 Mostly Cloudy with Nearby Thunderstorms 68 20 60 15.6 76 76 S 26 43 29.83 1010 10 16 0.00 0.03
12:54 am 00:54 Mostly Cloudy with Nearby Thunderstorms 67 19.4 60 15.6 79 79 S 20 31 29.85 1011 10 16 0.00 0.03
1:06 am 01:06 Windy with Storms Likely 66 18.9 59 15 78 78 S 22 35 29.85 1011 10 16 0.00 0.03
1:21 am 01:21 Cloudy with Nearby Thunderstorms 66 18.9 59 15 78 78 SSW 23 37 29.83 1010 8 13 0.01 0.25
1:32 am 01:32 Windy with Storms Likely 66 19 57 14 73 73 S 22 35 29.85 1011 10 16 0.00 0.00
1:47 am 01:47 Cloudy with Light Rain 64 17.8 59 15 84 84 S 18 30 29.85 1011 7 11 0.02 0.51
1:54 am 01:54 Cloudy with Nearby Thunderstorms 63 17.2 59 15 87 87 S 17 28 29.85 1011 6 10 0.04 1.02
2:10 am 02:10 Cloudy with Rain 63 17 59 15 88 88 S 13 20 29.83 1010 6 10 0.00 0.00
2:54 am 02:54 Mostly Clear with Light Rain 64 17.8 59 15 84 84 SE 28 44 29.64 1004 10 16 0.05 1.27
3:54 am 03:54 Clear 68 20 56 13.3 65 65 SE 8 13 29.69 1006 10 16 0.00 0.03
4:54 am 04:54 Clear 66 18.9 58 14.4 75 75 W 13 20 29.80 1009 10 16 0.00 0.00
5:08 am 05:08 Partly Cloudy 66 19 57 14 73 73 W 15 24 29.83 1010 10 16 0.00 0.00
5:54 am 05:54 Cloudy with Light Rain 65 18.3 58 14.4 78 78 Calm 29.82 1010 7 11 0.01 0.25
6:54 am 06:54 Cloudy with Light Rain 63 17.2 59 15 87 87 S 9 15 29.81 1010 9 14 0.04 1.02
7:54 am 07:54 Mostly Cloudy 64 17.8 59 15 84 84 W 7 11 29.87 1012 10 16 0.00 0.03
8:54 am 08:54 Mostly Cloudy with Light Rain 64 17.8 62 16.7 93 93 S 5 7 29.86 1011 10 16 0.01 0.25
9:54 am 09:54 Mostly Cloudy 64 17.8 61 16.1 90 90 SSE 6 9 29.86 1011 10 16 0.00 0.03
10:54 am 10:54 Sunny 68 20 62 16.7 81 81 SSE 5 7 29.84 1010 10 16 0.00 0.00
11:54 am 11:54 Sunny 73 22.8 61 16.1 66 66 S 10 17 29.82 1010 10 16 0.00 0.00
12:54 pm 12:54 Sunny 78 25.6 62 16.7 58 58 S 23 37 29.80 1009 10 16 0.00 0.00
1:54 pm 13:54 Partly Cloudy 77 25 64 17.8 64 64 S 20 31 29.80 1009 10 16 0.00 0.00
2:54 pm 14:54 Cloudy 77 25 65 18.3 66 66 S 17 28 29.81 1010 10 16 0.00 0.00
3:15 pm 15:15 Cloudy 76 24.4 64 17.8 67 67 SSW 16 26 29.80 1009 10 16 0.00 0.00
3:28 pm 15:28 Cloudy 75 24 64 18 69 69 S 13 20 29.80 1009 10 16 0.00 0.00
3:54 pm 15:54 Cloudy 75 23.9 64 17.8 69 69 S 12 19 29.82 1010 10 16 0.00 0.00
4:34 pm 16:34 Cloudy 75 24 66 19 74 74 SSW 12 19 29.80 1009 10 16 0.00 0.00
4:54 pm 16:54 Cloudy 75 23.9 66 18.9 74 74 S 10 17 29.82 1010 10 16 0.00 0.00
5:54 pm 17:54 Cloudy 75 23.9 67 19.4 76 76 S 6 9 29.81 1009 10 16 0.00 0.00
6:54 pm 18:54 Partly Cloudy 77 25 68 20 74 74 S 5 7 29.80 1009 10 16 0.00 0.00
7:54 pm 19:54 Sunny 76 24.4 67 19.4 74 74 SSE 7 11 29.79 1009 10 16 0.00 0.00
8:54 pm 20:54 Partly Cloudy 73 22.8 67 19.4 81 81 Calm 29.80 1009 9 14 0.00 0.00
9:54 pm 21:54 Mostly Cloudy 74 23.3 68 20 82 82 ESE 5 7 29.81 1010 10 16 0.00 0.00
10:40 pm 22:40 Mostly Cloudy with Thunderstorms 72 22 66 19 83 83 Calm 29.77 1008 9 14 0.00 0.00
10:54 pm 22:54 Partly Cloudy with Thunderstorms 73 22.8 68 20 84 84 WSW 5 7 29.83 1010 10 16 0.00 0.03
10:59 pm 22:59 Mostly Cloudy 72 22.2 68 20 87 87 Calm 29.80 1009 10 16 0.00 0.00
11:54 pm 23:54 Mostly Clear 73 22.8 68 20 84 84 WNW 7 11 29.83 1010 9 14 0.00 0.00

Powered by AerisWeather